Location: Dead Woman Crossing
(43.5369°N, 106.3228°W)
Time: 01:11:37
(UTC+00:00)

NOAA 19 - Visible Passes

Search period start: 26 June 2022 00:00
Search period end: 06 July 2022 00:00
Orbit: 840 x 861 km, 99.1° (Epoch: 25 June)

Date Brightness Start Highest point End Pass type
(mag) Time Alt. Az. Time Alt. Az. Time Alt. Az.
01 Jul 8.0 04:02:21 10° WSW 04:04:07 11° W 04:05:53 10° WNW visible
02 Jul 7.8 03:48:58 10° SW 03:52:04 15° W 03:55:10 10° NW visible
03 Jul 7.7 03:36:10 10° SW 03:40:02 19° W 03:43:55 10° NW visible
04 Jul 7.4 03:23:37 10° SSW 03:28:02 24° W 03:32:28 10° NW visible
